STARLINK-35433

Last updated on Mon Oct 20 2025 00:02:07 GMT+0000 (Coordinated Universal Time)

1 65870U 25223S 25292.25002315 -.01907350 00000+0 -21798-1 0 9992 2 65870 53.1597 234.9502 0001232 86.0132 36.1676 15.64689409 3735
UTC large
Height (km)
Speed (km/s)
/
Latitude / Longitude
Inclination (degrees)
Orbital Period (minutes)
Azimuth
Elevation
Range (km)
Doppler Factor

Next 0 passes for location: London (51.5072 / 0.1276)

Sorry there are no passes over London.